Snowfall_Accumulation
0.0 0.0 0.0 0.0 0.0 0.0 0.0 0.0 0.0 0.0 0.0 0.0 0.0 0.0 0.0 0.0 0.0 0.0 0.0 nan nan nan nan nan nan nan nan nan nan nan nan nan nan nan nan nan nan nan
0.0 0.0 0.0 0.0 0.0 0.0 0.0 0.0 0.0 0.0 0.0 0.0 0.0 0.0 0.0 0.0 0.0 0.0 0.0 nan nan nan nan nan nan nan nan nan nan nan nan nan nan nan nan nan nan nan
0.0 0.0 0.0 0.0 0.0 0.0 0.0 0.0 0.0 0.0 0.0 0.0 0.0 0.0 0.0 0.0 0.0 0.0 0.0 0.0 0.0 nan nan nan nan nan nan nan nan nan nan nan nan nan nan nan nan nan
0.0 0.0 0.0 0.0 0.0 0.0 0.0 0.0 0.0 0.0 0.0 0.0 0.0 0.0 0.0 0.0 0.0 0.0 0.0 0.0 0.0 nan nan nan nan nan nan nan nan nan nan nan nan nan nan nan nan nan
0.0 0.0 0.0 0.0 0.0 0.0 0.0 0.0 0.0 0.0 0.0 0.0 0.0 0.0 0.0 0.0 0.0 0.0 0.0 0.0 0.0 nan nan nan nan nan nan nan nan nan nan nan nan nan nan nan nan nan
0.0 0.0 0.0 0.0 0.0 0.0 0.0 0.0 0.0 0.0 0.0 0.0 0.0 0.0 0.0 0.0 0.0 0.0 0.0 0.0 0.0 0.0 nan nan nan nan nan nan nan nan nan nan nan nan nan nan nan nan
0.0 0.0 0.0 nan nan nan 0.0 0.0 0.0 0.0 0.0 0.0 0.0 0.0 0.0 0.0 0.0 0.0 0.0 0.0 0.0 0.0 0.0 0.0 0.0 0.0 0.0 nan nan nan nan nan nan nan nan nan nan nan
0.0 0.0 0.0 0.0 0.0 nan nan nan nan 0.0 0.1 0.3 0.5 0.1 0.0 0.0 0.0 0.0 0.0 0.0 0.3 0.0 0.0 0.0 0.0 0.0 0.0 0.0 nan nan nan nan nan nan nan nan nan nan
0.0 0.0 0.0 0.0 nan 0.0 nan nan nan nan nan 0.0 0.0 0.0 0.1 0.0 0.0 0.0 0.0 0.1 0.3 0.0 0.0 0.0 0.0 0.0 0.0 0.0 nan nan nan nan nan nan nan nan nan nan
0.0 0.0 0.0 0.0 0.0 0.0 0.0 0.1 0.1 0.0 0.0 0.0 0.0 0.0 0.0 0.0 0.1 0.2 0.4 0.1 0.0 0.0 0.0 1.7 0.1 0.0 0.0 0.0 nan nan nan nan nan nan nan nan nan nan
0.0 0.0 0.0 0.0 nan nan 0.1 0.2 0.0 0.0 nan nan nan nan nan nan nan 0.0 1.1 1.5 0.5 0.2 0.2 0.2 0.3 0.7 0.7 0.3 0.0 nan nan nan nan nan nan nan nan nan
0.0 0.0 nan 0.0 nan nan 0.0 0.0 0.2 0.0 0.0 0.0 0.0 0.0 nan nan nan 0.0 1.7 4.7 3.0 1.8 0.8 2.2 1.4 1.5 2.3 1.0 0.7 0.3 0.0 nan nan nan nan nan nan 0.0
0.1 0.0 0.0 nan nan nan nan 0.0 0.0 0.0 0.0 0.0 0.0 0.0 0.0 0.1 0.0 0.1 0.3 2.7 4.9 3.8 1.0 1.9 4.7 2.8 2.8 2.7 1.3 1.3 0.8 0.3 0.0 0.0 nan nan nan 0.0
0.0 0.0 0.0 nan nan nan nan nan nan nan 0.0 0.1 0.4 0.7 1.2 1.5 1.3 0.9 0.2 0.6 1.0 2.3 0.7 2.6 15.0 6.8 8.6 4.3 3.7 2.9 2.3 1.5 0.5 0.1 0.0 nan nan nan
0.0 0.0 nan nan nan nan nan nan nan 0.0 0.3 1.1 1.0 1.9 2.2 2.1 3.2 3.9 3.0 2.8 5.0 3.1 3.1 5.2 11.3 7.3 7.9 7.4 5.0 3.8 3.6 3.3 1.4 0.8 0.4 0.0 0.0 0.0
nan 0.4 nan 0.0 nan nan 0.0 0.0 0.0 0.1 0.6 1.8 1.9 1.6 2.5 5.7 5.7 5.9 8.6 8.1 10.1 7.4 4.6 5.9 5.9 6.6 8.1 4.6 3.6 3.2 3.1 4.1 3.2 2.1 1.3 0.9 0.5 0.1
nan 0.0 0.0 0.0 0.0 0.0 0.0 0.0 0.0 0.1 1.6 1.8 2.5 2.7 3.5 5.7 6.8 7.1 9.2 9.1 10.9 8.9 7.9 6.1 3.7 3.8 4.6 4.7 6.1 4.1 3.6 4.0 3.4 3.1 1.6 2.4 2.3 0.9
0.0 0.0 0.1 0.5 0.6 0.1 0.2 0.2 0.2 1.3 2.0 3.0 3.5 4.2 6.6 8.3 9.9 11.0 11.5 10.3 9.8 7.3 7.9 7.5 8.4 9.0 7.3 5.0 4.9 6.5 3.3 3.3 3.8 2.9 1.4 1.1 2.0 1.2
0.0 1.0 0.9 1.1 1.2 1.3 1.7 2.5 4.3 2.8 4.2 6.7 6.7 7.6 8.7 9.6 11.6 10.9 10.5 8.0 7.0 6.4 7.5 10.2 11.8 12.0 11.4 9.5 3.7 nan 1.7 2.4 2.4 2.2 1.0 0.6 0.8 1.3
1.0 1.5 1.8 1.5 1.6 2.2 2.9 4.8 5.9 5.7 7.1 8.4 8.5 9.7 11.2 12.2 12.7 11.8 8.6 8.2 4.9 7.0 10.6 11.7 15.1 17.3 15.8 12.7 8.0 4.2 nan 1.5 0.8 0.8 1.0 0.8 0.8 nan
1.1 1.5 1.2 1.7 2.2 3.1 4.4 6.4 7.0 10.1 12.0 13.0 11.1 11.3 11.2 11.2 10.5 8.1 6.0 4.0 nan 7.6 10.5 9.9 12.7 nan 17.3 11.1 8.6 3.9 3.3 nan 0.6 1.7 1.9 1.6 0.5 0.9
0.8 1.4 1.4 2.1 2.6 4.2 6.9 8.5 9.7 10.0 11.1 11.1 10.7 11.5 9.8 8.5 7.3 4.6 4.1 6.3 4.5 6.2 10.2 12.2 10.0 12.1 15.6 11.8 8.6 4.0 3.6 2.6 nan nan nan nan 4.6 6.2
1.5 1.4 1.9 2.7 3.8 5.7 7.2 9.2 10.7 11.4 10.9 12.0 11.7 9.5 7.9 6.9 4.4 4.1 3.6 3.1 4.6 5.9 6.4 7.2 7.8 9.4 9.9 10.1 11.1 6.0 3.7 3.3 2.8 4.1 2.5 nan nan nan
Water_Equivalent
0.00 0.00 0.00 0.00 0.00 0.00 0.00 0.00 0.00 0.00 0.00 0.00 0.00 0.00 0.00 0.00 0.00 0.00 0.00 nan nan nan nan nan nan nan nan nan nan nan nan nan nan nan nan nan nan nan
0.00 0.00 0.00 0.00 0.00 0.00 0.00 0.00 0.00 0.00 0.00 0.00 0.00 0.00 0.00 0.00 0.00 0.00 0.00 nan nan nan nan nan nan nan nan nan nan nan nan nan nan nan nan nan nan nan
0.00 0.00 0.00 0.00 0.00 0.00 0.00 0.00 0.00 0.00 0.00 0.00 0.00 0.00 0.00 0.00 0.00 0.00 0.00 0.00 0.00 nan nan nan nan nan nan nan nan nan nan nan nan nan nan nan nan nan
0.00 0.00 0.00 0.00 0.00 0.00 0.00 0.00 0.00 0.00 0.00 0.00 0.00 0.00 0.00 0.00 0.00 0.00 0.00 0.00 0.00 nan nan nan nan nan nan nan nan nan nan nan nan nan nan nan nan nan
0.00 0.00 0.00 0.00 0.00 0.00 0.00 0.00 0.00 0.00 0.00 0.00 0.00 0.00 0.00 0.00 0.00 0.00 0.00 0.00 0.00 nan nan nan nan nan nan nan nan nan nan nan nan nan nan nan nan nan
0.00 0.00 0.00 0.00 0.00 0.00 0.00 0.00 0.00 0.00 0.00 0.00 0.00 0.00 0.00 0.00 0.00 0.00 0.00 0.00 0.00 0.00 nan nan nan nan nan nan nan nan nan nan nan nan nan nan nan nan
0.00 0.00 0.00 nan nan nan 0.00 0.00 0.00 0.00 0.00 0.00 0.00 0.00 0.00 0.00 0.00 0.00 0.00 0.00 0.00 0.00 0.00 0.00 0.00 0.00 0.00 nan nan nan nan nan nan nan nan nan nan nan
0.00 0.00 0.00 0.00 0.00 nan nan nan nan 0.00 0.01 0.05 0.07 0.01 0.00 0.00 0.00 0.00 0.00 0.00 0.05 0.00 0.00 0.00 0.00 0.00 0.00 0.00 nan nan nan nan nan nan nan nan nan nan
0.00 0.00 0.00 0.00 nan 0.00 nan nan nan nan nan 0.00 0.00 0.00 0.01 0.00 0.00 0.00 0.01 0.02 0.05 0.00 0.00 0.00 0.00 0.00 0.00 0.00 nan nan nan nan nan nan nan nan nan nan
0.00 0.00 0.00 0.00 0.00 0.00 0.00 0.02 0.01 0.00 0.00 0.00 0.00 0.00 0.00 0.00 0.01 0.04 0.06 0.02 0.01 0.00 0.00 0.32 0.02 0.01 0.00 0.00 nan nan nan nan nan nan nan nan nan nan
0.00 0.00 0.00 0.00 nan nan 0.03 0.03 0.00 0.00 nan nan nan nan nan nan nan 0.01 0.23 0.30 0.14 0.08 0.06 0.07 0.10 0.15 0.18 0.09 0.01 nan nan nan nan nan nan nan nan nan
0.00 0.00 nan 0.00 nan nan 0.00 0.00 0.04 0.00 0.00 0.00 0.00 0.00 nan nan nan 0.00 0.32 0.77 0.57 0.33 0.18 0.38 0.28 0.29 0.41 0.23 0.21 0.08 0.00 nan nan nan nan nan nan 0.00
0.03 0.00 0.00 nan nan nan nan 0.00 0.00 0.00 0.01 0.00 0.00 0.00 0.01 0.03 0.01 0.03 0.07 0.49 0.80 0.68 0.21 0.39 0.83 0.50 0.58 0.48 0.27 0.32 0.20 0.06 0.00 0.00 nan nan nan 0.00
0.00 0.00 0.00 nan nan nan nan nan nan nan 0.00 0.01 0.12 0.24 0.36 0.42 0.41 0.27 0.07 0.15 0.21 0.39 0.15 0.51 1.99 1.01 1.16 0.63 0.54 0.51 0.42 0.30 0.11 0.03 0.00 nan nan nan
0.00 0.00 nan nan nan nan nan nan nan 0.00 0.04 0.21 0.28 0.55 0.59 0.57 0.69 0.70 0.55 0.52 0.92 0.61 0.63 0.97 1.56 1.03 1.05 0.93 0.60 0.52 0.55 0.59 0.30 0.16 0.07 0.00 0.01 0.00
nan 0.07 nan 0.00 nan nan 0.00 0.00 0.00 0.01 0.09 0.25 0.30 0.32 0.50 0.92 0.88 0.93 1.26 1.28 1.39 1.12 0.77 0.93 0.79 0.85 0.99 0.62 0.52 0.45 0.45 0.59 0.65 0.43 0.24 0.18 0.10 0.02
nan 0.00 0.00 0.00 0.00 0.00 0.00 0.00 0.00 0.01 0.25 0.28 0.39 0.45 0.61 0.90 0.95 1.05 1.36 1.34 1.32 1.08 0.95 0.83 0.51 0.53 0.63 0.62 0.76 0.59 0.51 0.55 0.59 0.58 0.26 0.39 0.46 0.22
0.00 0.00 0.01 0.09 0.10 0.02 0.03 0.03 0.05 0.26 0.33 0.52 0.62 0.71 0.95 1.14 1.32 1.56 1.59 1.30 1.15 0.88 0.91 0.92 0.93 0.98 1.01 0.69 0.62 0.71 0.44 0.42 0.57 0.47 0.25 0.16 0.28 0.23
0.01 0.18 0.17 0.19 0.21 0.24 0.29 0.43 0.63 0.52 0.81 1.13 1.02 1.09 1.16 1.28 1.53 1.40 1.28 0.99 0.83 0.78 0.87 1.09 1.24 1.26 1.20 0.97 0.48 nan 0.21 0.31 0.32 0.29 0.15 0.09 0.11 0.21
0.20 0.28 0.32 0.27 0.28 0.39 0.48 0.75 0.87 0.85 1.00 1.17 1.19 1.32 1.51 1.63 1.59 1.37 1.00 0.88 0.59 0.84 1.13 1.28 1.63 1.87 1.69 1.34 0.83 0.50 nan 0.20 0.11 0.09 0.13 0.10 0.12 nan
0.20 0.28 0.22 0.32 0.40 0.57 0.69 0.89 0.93 1.29 1.60 1.70 1.44 1.56 1.56 1.44 1.22 0.93 0.70 0.48 nan 0.88 1.11 1.05 1.37 nan 1.88 1.18 0.91 0.44 0.44 nan 0.09 0.18 0.22 0.18 0.07 0.13
0.15 0.24 0.25 0.40 0.49 0.71 1.04 1.22 1.41 1.50 1.47 1.39 1.40 1.51 1.22 1.01 0.82 0.49 0.43 0.70 0.53 0.73 1.08 1.33 1.06 1.29 1.70 1.26 0.90 0.41 0.38 0.35 nan nan nan nan 0.53 0.64
0.26 0.23 0.38 0.53 0.71 0.85 1.05 1.26 1.51 1.51 1.42 1.53 1.47 1.13 0.91 0.74 0.50 0.47 0.43 0.38 0.55 0.64 0.69 0.76 0.84 1.00 1.04 1.07 1.18 0.62 0.38 0.34 0.33 0.47 0.34 nan nan nan
SL_Ratio
nan nan nan nan nan nan nan nan nan nan nan nan nan nan nan nan nan nan nan nan nan nan nan nan nan nan nan nan nan nan nan nan nan nan nan nan nan nan
nan nan nan nan nan nan nan nan nan nan nan nan nan nan nan nan nan nan nan nan nan nan nan nan nan nan nan nan nan nan nan nan nan nan nan nan nan nan
nan nan nan nan nan nan nan nan nan nan nan nan nan nan nan nan nan nan nan nan nan nan nan nan nan nan nan nan nan nan nan nan nan nan nan nan nan nan
nan nan nan nan nan nan nan nan nan nan nan nan nan nan nan nan nan nan nan nan nan nan nan nan nan nan nan nan nan nan nan nan nan nan nan nan nan nan
nan nan nan nan nan nan nan nan nan nan nan nan nan nan nan nan nan nan nan nan nan nan nan nan nan nan nan nan nan nan nan nan nan nan nan nan nan nan
nan nan nan nan nan nan nan nan nan nan nan nan nan nan nan nan nan nan nan nan nan nan nan nan nan nan nan nan nan nan nan nan nan nan nan nan nan nan
nan nan nan nan nan nan nan nan nan nan nan nan nan 5.7 6.0 nan nan nan nan nan nan nan nan nan nan nan nan nan nan nan nan nan nan nan nan nan nan nan
nan nan nan nan nan nan nan nan nan nan 5.6 6.0 6.3 6.8 nan nan nan nan nan nan 5.5 nan nan nan nan nan nan nan nan nan nan nan nan nan nan nan nan nan
nan nan nan nan nan nan nan nan nan nan nan 6.4 5.0 nan 5.7 nan nan 6.3 5.8 5.8 5.6 5.0 nan 5.5 nan nan nan nan nan nan nan nan nan nan nan nan nan nan
nan nan nan nan nan nan nan 5.3 5.7 5.0 nan nan nan nan nan nan 5.6 5.5 6.0 6.4 2.5 2.5 nan 5.3 2.5 2.7 2.5 nan nan nan nan nan nan nan nan nan nan nan
nan nan nan nan nan nan 5.3 6.0 nan nan nan nan nan nan nan nan nan 5.2 4.8 4.9 3.9 2.6 2.5 3.7 3.1 4.4 4.1 3.8 2.4 nan nan nan nan nan nan nan nan nan
nan nan nan nan nan nan nan nan 5.4 4.5 nan nan nan nan nan nan nan 5.0 5.3 6.2 5.3 5.3 4.4 5.8 5.2 5.3 5.6 4.4 3.6 3.5 nan nan nan nan nan nan nan nan
5.2 nan nan nan nan nan nan nan 5.0 nan 4.8 nan nan 2.5 2.6 2.6 2.6 4.2 5.0 5.6 6.1 5.6 4.7 4.9 5.7 5.6 4.8 5.6 4.8 4.1 3.8 4.4 3.6 nan nan nan nan nan
nan nan nan nan nan nan nan nan nan nan nan 6.1 3.4 2.9 3.4 3.6 3.3 3.4 3.5 4.1 4.5 6.0 4.9 5.0 7.5 6.8 7.5 6.8 6.8 5.6 5.5 4.9 4.7 4.7 nan nan nan nan
nan 0.0 nan nan nan nan nan nan nan 5.0 5.8 5.1 3.6 3.5 3.7 3.7 4.7 5.6 5.4 5.3 5.4 5.0 5.0 5.4 7.2 7.1 7.5 8.0 8.3 7.4 6.6 5.6 4.8 5.2 5.0 5.0 3.9 nan
nan 6.0 nan nan nan nan nan nan nan 5.9 7.0 7.5 6.4 5.0 5.1 6.2 6.5 6.4 6.8 6.3 7.3 6.6 6.0 6.3 7.5 7.7 8.1 7.3 6.9 7.0 6.9 6.9 5.0 5.0 5.5 5.1 4.7 4.0
nan nan nan nan 5.0 10.0 5.0 nan nan 6.7 6.5 6.3 6.2 6.0 5.8 6.3 7.1 6.7 6.8 6.8 8.2 8.2 8.3 7.4 7.3 7.2 7.3 7.5 8.0 6.9 7.2 7.2 5.7 5.3 5.9 6.0 5.1 4.2
5.0 5.0 7.7 5.4 5.5 6.9 6.8 6.1 4.8 5.1 6.1 5.7 5.6 5.9 7.0 7.3 7.5 7.1 7.2 8.0 8.5 8.3 8.7 8.1 9.0 9.2 7.2 7.1 8.0 9.1 7.5 7.8 6.7 6.2 5.8 7.1 7.0 5.4
7.1 5.2 5.7 5.5 5.6 5.6 5.6 5.9 6.8 5.4 5.2 5.9 6.5 6.9 7.5 7.5 7.6 7.8 8.2 8.1 8.4 8.3 8.6 9.4 9.5 9.5 9.5 9.8 7.7 nan 8.2 7.8 7.3 7.5 6.8 6.4 7.1 6.1
5.0 5.5 5.8 5.6 5.7 5.8 6.1 6.4 6.8 6.7 7.1 7.2 7.2 7.4 7.4 7.5 8.0 8.6 8.6 9.3 8.2 8.3 9.4 9.1 9.2 9.2 9.3 9.5 9.7 8.4 nan 7.5 7.6 8.1 8.3 7.3 6.4 nan
5.3 5.3 5.5 5.5 5.5 5.4 6.3 7.2 7.5 7.8 7.5 7.7 7.7 7.2 7.2 7.8 8.7 8.6 8.6 8.5 nan 8.7 9.4 9.4 9.3 nan 9.2 9.4 9.5 8.8 7.5 nan 7.0 9.3 8.7 9.4 8.1 7.4
5.4 5.9 5.6 5.3 5.3 5.9 6.7 7.0 6.9 6.6 7.6 8.0 7.7 7.7 8.0 8.3 9.0 9.4 9.4 9.0 8.5 8.5 9.4 9.2 9.4 9.4 9.2 9.4 9.6 9.8 9.5 7.5 nan nan nan nan 8.8 9.7
5.7 6.0 5.0 5.1 5.3 6.7 6.8 7.3 7.1 7.5 7.7 7.9 8.0 8.4 8.7 9.3 8.9 8.7 8.4 8.1 8.4 9.3 9.3 9.4 9.3 9.4 9.5 9.5 9.4 9.7 9.8 9.7 8.7 8.7 7.4 nan nan nan